Regional Weather Roundup
Issued by NWS

Home | Current Version | Previous Version | Text Only | Print | Product List | Glossary On
Versions: 1 2 3 4 5 6 7 8 9 10 11 12 13 14 15 16 17 18 19 20 21 22 23 24 25 26 27 28 29 30 31 32 33 34 35 36 37 38 39 40 41 42 43 44 45 46 47 48 49 50
000
ASUS44 KLIX 302105
RWRLA
LOUISIANA WEATHER ROUNDUP
NATIONAL WEATHER SERVICE NEW ORLEANS LA
400 PM CDT SUN AUG 30 2015

NOTE: "FAIR" INDICATES FEW OR NO CLOUDS BELOW 12,000 FEET WITH NO
      SIGNIFICANT WEATHER AND/OR OBSTRUCTIONS TO VISIBILITY.
      SKY/WX - SKY CONDITION AND SIGNIFICANT WEATHER.
      TMP - AIR TEMPERATURE.    DP   - DEWPOINT TEMPERATURE.
      RH  - RELATIVE HUMIDITY.  PRES - PRESSURE.
      HX  - HEAT INDEX.         WCI  - WIND CHILL INDEX.

*  THESE STATIONS ARE NOT NWS OR FAA STATIONS AND ARE NOT UNDER
   NWS QUALITY CONTROL.

LAZ040-048-061>063-065-066-069-302200-
SOUTHEAST LOUISIANA

CITY           SKY/WX    TMP DP  RH WIND       PRES   REMARKS
N.O. AUDUBON     N/A     93  72  50 MISG        N/A  HX 100
N.O. INTL ARPT PTSUNNY   90  64  42 CALM      30.00F
N.O. LAKEFRONT MOSUNNY   87  66  49 W7        30.01F
N.O. DOWNTOWN* MOCLDY    90  64  43 CALM      30.01F
RESERVE*       FAIR      91  68  47 SE6       30.00F HX  95
SLIDELL        MOSUNNY   90  67  46 VRB6      29.99F
BATON ROUGE    SUNNY     91  65  41 W6        30.00F
BOOTHVILLE     MOSUNNY   88  66  48 E7        30.03F
BELLE CHASSE   PTSUNNY   87  69  54 E6        30.01F
BOGALUSA*      NOT AVBL
GALLIANO*      CLOUDY    89  64  42 CALM      30.01F
NEW ROADS*     FAIR      88  65  45 W3        30.00F
GONZALES*      CLOUDY    90  66  46 N3        29.99F
HAMMOND*       MOSUNNY   95  52  23 NW8       30.00F
HOUMA*         MOSUNNY   84  72  65 S7        30.02
PORT FOURCHON* CLEAR     86  68  54 SE7       30.02F

$$

LAZ041-044-053-054-302200-
SOUTHWEST LOUISIANA

CITY           SKY/WX    TMP DP  RH WIND       PRES   REMARKS
LAKE CHARLES   CLOUDY    85  68  56 CALM      30.00F
LAFAYETTE      CLOUDY    87  69  54 CALM      30.00F
PATTERSON      PTSUNNY   84  70  61 S3        30.02F
SALT POINT       N/A     87  70  56 VRB6      29.99F
NEW IBERIA     PTSUNNY   89  73  59 S6        30.00F HX  97
CHENAULT AIRPK NOT AVBL

$$

LAZ027-028-302200-
CENTRAL LOUISIANA

CITY           SKY/WX    TMP DP  RH WIND       PRES   REMARKS
FORT POLK      CLOUDY    87  65  46 S8        29.98F
ALEXANDRIA INT MOSUNNY   91  60  35 SE7       29.97F
ALEXANDRIA     SUNNY     94  61  33 CALM      29.98F

$$

LAZ001-002-302200-
NORTHWEST LOUISIANA

CITY           SKY/WX    TMP DP  RH WIND       PRES   REMARKS
SHREVEPORT     PTSUNNY   93  62  35 W3        29.97F
BARKSDALE AFB  MOSUNNY   94  60  32 SW6       29.96F
DTN SHREVEPORT PTSUNNY   91  63  39 W3        29.97F

$$

LAZ014-016-302200-
NORTHEAST LOUISIANA

CITY           SKY/WX    TMP DP  RH WIND       PRES   REMARKS
MONROE         MOSUNNY   95  63  34 S7        29.97F HX  96
TALLULAH       MOSUNNY   93  56  28 MISG      29.98F

$$




USA.gov is the U.S. government's official web portal to all federal, state and local government web resources and services.